Voltar ao catálogo

STARLINK-34014

AtivoComunicaçõesVLEO
NORAD 63942·PAYLOAD·🇺🇸 United States

Lançado May 13, 2025 de Vandenberg Space Force Base

Loading…

Próximas Passagens (próximas 24 horas)

TLE

AtualizadoSource: CelesTrak SupGP

Época: Sep 14, 2026, 21:23 UTC

1 63942C 25098S   26257.89145833 -.00040850  00000+0 -14207-2 0  2572
2 63942  70.0000 155.6697 0003292 268.5810 202.8488 15.29606876    11

Acompanhe STARLINK-34014 em tempo real com AllMySat

Download on the App Store